Location: Aalsum
(53.3404°N, 6.0062°E)
Time: 03:59:38
(UTC+00:00)

ATLAS 2AS CENTAUR R/B - Pass Details

Date: 28 January 2023
Orbit: 986 x 1226 km, 63.7° (Epoch: 31 January)

Event Time Altitude Azimuth Distance (km) Brightness Sun altitude
Rises 17:17:37 0° 306° (NW) 4,045 6.3 -9.9°
Reaches altitude 10° 17:20:30 10° 311° (NW) 3,048 5.5 -10.3°
Maximum altitude 17:27:36 54° 29° (NNE) 1,316 2.9 -11.4°
Enters shadow 17:34:02 11° 105° (ESE) 2,798 4.4 -12.3°
